Regional Weather Roundup
Issued by NWS

Home | Current Version | Previous Version | Text Only | Print | Product List | Glossary On
Versions: 1 2 3 4 5 6 7 8 9 10 11 12 13 14 15 16 17 18 19 20 21 22 23 24 25 26 27 28 29 30 31 32 33 34 35 36 37 38 39 40 41 42 43 44 45 46 47 48 49 50
300
ASUS43 KLSX 190107
RWRMO

WEATHER SUMMARY FOR MISSOURI
NATIONAL WEATHER SERVICE SPRINGFIELD MO
700 PM CST SAT NOV 18 2017

NOTE: "FAIR" INDICATES FEW OR NO CLOUDS BELOW 12,000 FEET WITH NO
       SIGNIFICANT WEATHER AND/OR OBSTRUCTIONS TO VISIBILITY.
       CURRENT SKY AND/OR WEATHER CONDITIONS ARE NOT AVAILABLE FOR
       CHILLICOTHE AND FARMINGTON.

MOZ001>031-035>038-043-044-053-054-190200-
...NORTHERN AND WESTERN MISSOURI...

CITY           SKY/WX    TMP DP  RH WIND       PRES   REMARKS
KANSAS CTY INT CLEAR     44  27  51 NW10      30.11R
KANSAS C DTWN  CLEAR     48  27  44 NW12G23   30.10R
LEE`S SUMMIT   CLEAR     46  31  55 NW15      30.09R
ST JOSEPH      CLEAR     42  26  53 NW14      30.13R
CHILLICOTHE      N/A     43  28  55 NW10G23   30.07R
KIRKSVILLE     PTCLDY    41  31  67 NW16G31   30.00R

$$
MOZ066>068-077>081-088>096-101>105-190200-
...SOUTHWEST MISSOURI...

CITY           SKY/WX    TMP DP  RH WIND       PRES   REMARKS
SPRINGFIELD    CLEAR     42  33  70 NW8       30.07R
JOPLIN         CLEAR     43  35  73 NW7       30.14R
BRANSON        CLEAR     43  32  65 NW10G18   30.09R

$$
MOZ032>034-039>042-045>050-055>058-069>072-190200-
...CENTRAL MISSOURI...

CITY           SKY/WX    TMP DP  RH WIND       PRES   REMARKS
COLUMBIA       CLEAR     41  32  70 W9        30.00R
JEFFERSON CITY CLEAR     42  33  70 NW5       30.01R
ROLLA          CLEAR     40  34  79 W12       30.00R
SEDALIA        CLEAR     45  34  65 NW14      30.06R
WHITEMAN AFB   CLEAR     45  31  58 NW9       30.03R
WARRENSBURG    CLEAR     43  30  61 W10       30.08R
OSAGE BEACH    CLEAR     44  33  65 W7        30.05R

$$
MOZ051-052-059>065-190200-
...EAST CENTRAL MISSOURI...

CITY           SKY/WX    TMP DP  RH WIND       PRES   REMARKS
ST LOUIS INTL  MOCLDY    41  35  79 W12       29.91R
SPIRIT OF STL  MOCLDY    43  34  70 W16       29.93R
ST CHARLES     PTCLDY    43  34  70 W17G25    29.91R

$$
MOZ072>076-082>087-097>100-106>115-190200-
...SOUTH CENTRAL AND SOUTHEAST MISSOURI...

CITY           SKY/WX    TMP DP  RH WIND       PRES   REMARKS
CAPE GIRARDEAU CLOUDY    47  37  68 NW20G35   29.90R
FARMINGTON     MOCLDY    42  35  76 NW16G25   29.93R
POPLAR BLUFF   CLEAR     48  35  60 NW22G29   29.94R
WEST PLAINS    CLEAR     43  33  68 NW10G21   30.03R

$$



USA.gov is the U.S. government's official web portal to all federal, state and local government web resources and services.